Cosmos 1633 Rocket - Orbit

View from above orbital plane
View from above orbital plane
View from above satellite
View from above satellite

Ground track
Ground track

The orbit data is extracted from the following two-line orbital elements,

1 15593U 85020B   13168.18124786  .00000176  00000-0  18611-4 0  3724
2 15593 082.5369 189.0507 0012402 175.4520 251.5607 14.83353219527707
Epoch (UTC): 17 June 2013 04:20:59
Eccentricity: 0.0012402
inclination: 82.5369°
perigee height: 610 km
apogee height: 627 km
right ascension of ascending node: 189.0507°
argument of perigee: 175.4520°
revolutions per day: 14.83353219
mean anomaly at epoch: 251.5607°
orbit number at epoch: 52770

The dashed part of the orbit path shows where the satellite is in the earth's shadow,  

Developed and maintained by Chris Peat, Heavens-Above GmbH. Please read the updated FAQ before sending e-mail. Imprint. DLR